Weather History for Livingston, MT

Change the Weather History Date:

Thursday, February 7, 2013

  Actual Average Record
Temperature  
Mean Temperature 34 °F 28 °F  
Max Temperature 43 °F 38 °F 62 °F (1987)
Min Temperature 26 °F 18 °F -23 °F (1973)
Degree Days  
Heating Degree Days 30 37  
Month to date heating degree days 260  
Since 1 July heating degree days 4601  
Moisture  
Dew Point 12 °F    
Average Humidity 40    
Maximum Humidity 55    
Minimum Humidity 26    
Precipitation  
Precipitation 0.00 in 0.01 in 0.25 in (1975)
Month to date precipitation 0.11  
Year to date precipitation 0.60  
Sea Level Pressure  
Sea Level Pressure 29.99 in    
Wind  
Wind Speed 15 mph (SSW)    
Max Wind Speed 25 mph    
Max Gust Speed 39 mph    
Visibility 10 miles    
Events      
T = Trace of Precipitation, MM = Missing Value Source: NWS Daily Summary

Daily Weather History Graph

Daily Weather History Graph

Search for Another Location

Airport:

Trip Planner

Search our weather history database for the weather conditions in past years. The results will help you decide how hot, cold, wet, or windy it might be!

Date:

Astronomy

Feb. 07, 2013 Rise Set
Actual Time 7:35 AM MST 5:37 PM MST
Civil Twilight 7:03 AM MST 6:08 PM MST
Nautical Twilight 6:28 AM MST 6:43 PM MST
Astronomical Twilight 5:54 AM MST 7:18 PM MST
Moon 5:22 AM MST (2/7) 3:01 PM MST (2/7)
Length of Visible Light 11h 04m
Length of Day
10h 02m
Waning Crescent, 8% of the Moon is Illuminated
Feb 7
Waning Crescent
Feb 10
New
Feb 17
First Quarter
Feb 25
Full
Mar 4
Last Quarter

Hourly Weather History & Observations

Time (MST) Temp. Windchill Dew Point Humidity Pressure Visibility Wind Dir Wind Speed Gust Speed Precip Events Conditions
12:53 AM 30.9 °F 17.2 °F 15.1 °F 52% 30.10 in 10.0 mi WSW 25.3 mph 33.4 mph N/A   Clear
1:53 AM 30.9 °F 19.4 °F 14.0 °F 50% 30.08 in 10.0 mi SW 17.3 mph 34.5 mph N/A   Clear
2:53 AM 32.0 °F 19.5 °F 14.0 °F 48% 30.07 in 10.0 mi SW 21.9 mph 39.1 mph N/A   Clear
3:53 AM 32.0 °F 19.8 °F 12.9 °F 45% 30.05 in 10.0 mi SW 20.7 mph 31.1 mph N/A   Clear
4:53 AM 30.9 °F 20.7 °F 10.9 °F 43% 30.06 in 10.0 mi SW 13.8 mph - N/A   Clear
5:53 AM 33.1 °F 22.6 °F 10.9 °F 40% 30.04 in 10.0 mi SSW 16.1 mph 25.3 mph N/A   Clear
6:53 AM 27.0 °F 21.6 °F 10.9 °F 51% 30.06 in 10.0 mi East 4.6 mph - N/A   Clear
7:53 AM 26.1 °F - 10.9 °F 53% 30.06 in 10.0 mi Calm Calm - N/A   Clear
8:53 AM 32.0 °F 28.7 °F 12.9 °F 45% 30.06 in 10.0 mi East 3.5 mph - N/A   Clear
9:53 AM 35.1 °F 31.0 °F 12.9 °F 40% 30.02 in 10.0 mi Variable 4.6 mph 16.1 mph N/A   Clear
10:53 AM 37.9 °F - 12.9 °F 36% 30.01 in 10.0 mi Calm Calm - N/A   Clear
11:53 AM 41.0 °F 35.2 °F 10.9 °F 29% 29.99 in 10.0 mi SSE 9.2 mph 28.8 mph N/A   Clear
12:53 PM 42.1 °F 32.1 °F 12.0 °F 29% 29.96 in 10.0 mi SSW 25.3 mph 31.1 mph N/A   Clear
1:53 PM 42.1 °F 32.1 °F 10.9 °F 28% 29.94 in 10.0 mi SW 25.3 mph 33.4 mph N/A   Clear
2:53 PM 43.0 °F 38.2 °F 10.0 °F 26% 29.90 in 10.0 mi WSW 8.1 mph 21.9 mph N/A   Clear
3:53 PM 42.1 °F 33.3 °F 10.0 °F 27% 29.91 in 10.0 mi SSW 19.6 mph 26.5 mph N/A   Clear
4:53 PM 41.0 °F 31.4 °F 10.9 °F 29% 29.92 in 10.0 mi SSW 21.9 mph 27.6 mph N/A   Clear
5:53 PM 41.0 °F 32.2 °F 10.9 °F 29% 29.91 in 10.0 mi SSW 18.4 mph - N/A   Clear
6:53 PM 39.0 °F 32.8 °F 12.0 °F 33% 29.94 in 10.0 mi SSW 9.2 mph 21.9 mph N/A   Clear
7:53 PM 39.9 °F 32.1 °F 12.0 °F 32% 29.93 in 10.0 mi SW 13.8 mph - N/A   Clear
8:53 PM 34.0 °F - 10.9 °F 38% 29.92 in 10.0 mi Calm Calm - N/A   Clear
9:53 PM 30.0 °F 25.2 °F 12.0 °F 47% 29.93 in 10.0 mi SSE 4.6 mph - N/A   Clear
10:53 PM 30.9 °F 26.2 °F 12.9 °F 47% 29.92 in 10.0 mi East 4.6 mph - N/A   Clear
11:53 PM 26.1 °F 20.5 °F 12.0 °F 55% 29.93 in 10.0 mi SE 4.6 mph - N/A   Scattered Clouds